Regional Weather Roundup
Issued by NWS

Home | Current Version | Previous Version | Text Only | Print | Product List | Glossary On
Versions: 1 2 3 4 5 6 7 8 9 10 11 12 13 14 15 16 17 18 19 20 21 22 23 24 25 26 27 28 29 30 31 32 33 34 35 36 37 38 39 40 41 42 43 44 45 46 47 48 49 50
225
ASUS44 KBMX 131210
RWRAL

ALABAMA REGIONAL WEATHER ROUNDUP
NATIONAL WEATHER SERVICE BIRMINGHAM AL
600 AM CST SAT FEB 13 2016

NOTE: "FAIR" INDICATES FEW OR NO CLOUDS BELOW 12,000 FEET
WITH NO SIGNIFICANT WEATHER AND/OR OBSTRUCTIONS TO VISIBILITY.

THE REMARK "TC" DENOTES TEMPERATURE IN DEGREES CELSIUS.

ALZ001>011-014-016>018-020-131300-
NORTH ALABAMA

CITY           SKY/WX    TMP DP  RH WIND       PRES   REMARKS
MUSCLE SHOALS  CLEAR     26  11  52 N9G18     30.49R WCI  17
6HR MIN TEMP:  26; 6HR MAX TEMP:  35;

HUNTSVILLE     CLEAR     25  13  60 N8        30.45R WCI  16
6HR MIN TEMP:  25; 6HR MAX TEMP:  35;

DECATUR        CLEAR     24  15  68 N10       30.47R WCI  14
6HR MIN TEMP:  24; 6HR MAX TEMP:  33;

HALEYVILLE     FAIR      25  16  68 N8        30.45R WCI  16
6HR MIN TEMP:  25; 6HR MAX TEMP:  33;

GADSDEN        CLEAR     28  21  75 N5        30.40R WCI  23
6HR MIN TEMP:  28; 6HR MAX TEMP:  37;

$$

ALZ012-013-022-023-030>036-040>044-131300-
WEST CENTRAL ALABAMA

CITY           SKY/WX    TMP DP  RH WIND       PRES   REMARKS
TUSCALOOSA     CLEAR     33  19  56 N12       30.44R WCI  24
6HR MIN TEMP:  33; 6HR MAX TEMP:  41;

$$

ALZ015-024>027-033>036-040>044-131300-
CENTRAL ALABAMA

CITY           SKY/WX    TMP DP  RH WIND       PRES   REMARKS
BIRMINGHAM     CLEAR     30  19  63 N13       30.41R WCI  20
6HR MIN TEMP:  30; 6HR MAX TEMP:  39;

MONTGOMERY     CLEAR     38  20  48 N8        30.37R WCI  32
6HR MIN TEMP:  38; 6HR MAX TEMP:  49;

SHELBY CO ARPT CLEAR     33  17  51 N10       30.38R WCI  25
6HR MIN TEMP:  33; 6HR MAX TEMP:  43;

MAXWELL AFB    CLEAR     37  21  52 N8        30.35R WCI  31
6HR MIN TEMP:  37; 6HR MAX TEMP:  49;

GREENVILLE     FAIR      38  25  59 N5        30.35R WCI  34
6HR MIN TEMP:  38; 6HR MAX TEMP:  50;

$$

ALZ019-021-028-029-037-038-045>048-131300-
EAST CENTRAL ALABAMA

CITY           SKY/WX    TMP DP  RH WIND       PRES   REMARKS
ANNISTON       CLEAR     31  17  56 VRB5      30.37R WCI  26
6HR MIN TEMP:  31; 6HR MAX TEMP:  42;

ALEXANDER CITY CLEAR     33  22  63 N10       30.34R WCI  25
6HR MIN TEMP:  33; 6HR MAX TEMP:  46;

AUBURN         CLEAR     34  17  50 N10       30.32R WCI  26
6HR MIN TEMP:  34; 6HR MAX TEMP:  46;

$$

ALZ051>064-131300-
SOUTHWEST ALABAMA

CITY           SKY/WX    TMP DP  RH WIND       PRES   REMARKS
MOBILE         CLEAR     44  28  53 N12       30.37R
6HR MIN TEMP:  44; 6HR MAX TEMP:  55;

BROOKLEY FIELD CLEAR     47  29  49 N14       30.38R
6HR MIN TEMP:  47; 6HR MAX TEMP:  56;

EVERGREEN      CLEAR     39  27  62 CALM      30.37R
6HR MIN TEMP:  39; 6HR MAX TEMP:  53;

$$

ALZ049-050-065>069-131300-
SOUTHEAST ALABAMA

CITY           SKY/WX    TMP DP  RH WIND       PRES   REMARKS
DOTHAN         CLEAR     41  27  57 N10       30.35R
6HR MIN TEMP:  41; 6HR MAX TEMP:  52;

OZARK          CLEAR     42  23  47 N13       30.32R
6HR MIN TEMP:  42; 6HR MAX TEMP:  53;

TROY           CLEAR     40  23  50 N9        30.34R WCI  34
6HR MIN TEMP:  40; 6HR MAX TEMP:  52;

EUFAULA        FAIR      40  24  53 VRB5      30.32R
6HR MIN TEMP:  40; 6HR MAX TEMP:  53;

$$




USA.gov is the U.S. government's official web portal to all federal, state and local government web resources and services.